Location: Newark
(49.3000°N, 9.4667°E)
Time: 18:41:23
(UTC+00:00)

Transit 2A Rocket - Pass Details

Date: 23 May 2019
Orbit: 586 x 917 km, 66.7° (Epoch: 16 June)

Event Time Altitude Azimuth Distance (km) Brightness Sun altitude
Rises 23:19:09 0° 323° (NW) 3,506 9.3 -20.0°
Reaches altitude 10° 23:22:11 10° 336° (NNW) 2,524 8.6 -20.0°
Maximum altitude 23:26:58 25° 31° (NNE) 1,606 7.3 -20.0°
Drops below altitude 10° 23:31:27 10° 87° (E) 2,348 7.6 -20.0°
Sets 23:34:10 0° 100° (E) 3,213 8.2 -19.9°
